Tracking 22836 objects as of 16-Apr-2021
HD Live streaming from Space Station
objects crossing your sky now

STARLINK-1861

Track STARLINK-1861 now!
10-day predictions
STARLINK-1861 is classified as:


NORAD ID: 47148
Int'l Code: 2020-088AC
Perigee: 552.8 km
Apogee: 555.9 km
Inclination: 53.1 °
Period: 95.6 minutes
Semi major axis: 6925 km
RCS: Unknown
Launch date: November 25, 2020
Source: United States (US)
Launch site: AIR FORCE EASTERN TEST RANGE (AFETR)
aabbcc
Your satellite tracking list
Your tracking list is empty




NASA's NSSDC Master Catalog

Two Line Element Set (TLE):
1 47148U 20088AC  21106.00001157 -.00025287  00000-0 -16845-2 0  9998
2 47148  53.0520  41.3622 0002280  70.1518 174.1393 15.06402562  1766
Source of the keplerian elements: AFSPC